Year,Month,Day,Hour,Minute,Value (Times are PST for temperature in C)
2010,06,15,00,00,10.60
2010,06,15,00,01,10.60
2010,06,15,00,02,10.60
2010,06,15,00,03,10.60
2010,06,15,00,04,10.60
2010,06,15,00,05,10.60
2010,06,15,00,06,10.60
2010,06,15,00,07,10.60
2010,06,15,00,08,10.60
2010,06,15,00,09,10.60
2010,06,15,00,10,10.60
2010,06,15,00,11,10.50
2010,06,15,00,12,10.40
2010,06,15,00,13,10.40
2010,06,15,00,14,10.40
2010,06,15,00,15,10.40
2010,06,15,00,16,10.40
2010,06,15,00,17,10.40
2010,06,15,00,18,10.40
2010,06,15,00,19,10.40
2010,06,15,00,20,10.40
2010,06,15,00,21,10.40
2010,06,15,00,22,10.40
2010,06,15,00,23,10.40
2010,06,15,00,24,10.40
2010,06,15,00,25,10.40
2010,06,15,00,26,10.40
2010,06,15,00,27,10.40
2010,06,15,00,28,10.40
2010,06,15,00,29,10.40
2010,06,15,00,30,10.40
2010,06,15,00,31,10.40
2010,06,15,00,32,10.40
2010,06,15,00,33,10.40
2010,06,15,00,34,10.40
2010,06,15,00,35,10.40
2010,06,15,00,36,10.40
2010,06,15,00,37,10.40
2010,06,15,00,38,10.40
2010,06,15,00,39,10.40
2010,06,15,00,40,10.40
2010,06,15,00,41,10.40
2010,06,15,00,42,10.40
2010,06,15,00,43,10.40
2010,06,15,00,44,10.40
2010,06,15,00,45,10.40
2010,06,15,00,46,10.40
2010,06,15,00,47,10.40
2010,06,15,00,48,10.40
2010,06,15,00,49,10.40
2010,06,15,00,50,10.40
2010,06,15,00,51,10.40
2010,06,15,00,52,10.40
2010,06,15,00,53,10.40
2010,06,15,00,54,10.40
2010,06,15,00,55,10.40
2010,06,15,00,56,10.30
2010,06,15,00,57,10.30
2010,06,15,00,58,10.30
2010,06,15,00,59,10.30
2010,06,15,01,00,10.30
2010,06,15,01,01,10.20
2010,06,15,01,02,10.20
2010,06,15,01,03,10.20
2010,06,15,01,04,10.20
2010,06,15,01,05,10.20
2010,06,15,01,06,10.20
2010,06,15,01,07,10.10
2010,06,15,01,08,10.10
2010,06,15,01,09,10.10
2010,06,15,01,10,10.10
2010,06,15,01,11,10.10
2010,06,15,01,12,10.10
2010,06,15,01,13,10.10
2010,06,15,01,14,10.10
2010,06,15,01,15,10.10
2010,06,15,01,16,10.10
2010,06,15,01,17,9.90
2010,06,15,01,18,9.90
2010,06,15,01,19,9.90
2010,06,15,01,20,9.90
2010,06,15,01,21,9.90
2010,06,15,01,22,9.90
2010,06,15,01,23,9.90
2010,06,15,01,24,9.90
2010,06,15,01,25,9.90
2010,06,15,01,26,9.90
2010,06,15,01,27,9.90
2010,06,15,01,28,9.90
2010,06,15,01,29,9.90
2010,06,15,01,30,9.90
2010,06,15,01,31,9.90
2010,06,15,01,32,9.90
2010,06,15,01,33,9.90
2010,06,15,01,34,9.90
2010,06,15,01,35,9.90
2010,06,15,01,36,9.90
2010,06,15,01,37,9.90
2010,06,15,01,38,9.90
2010,06,15,01,39,9.90
2010,06,15,01,40,9.90
2010,06,15,01,41,9.90
2010,06,15,01,42,9.90
2010,06,15,01,43,9.90
2010,06,15,01,44,9.90
2010,06,15,01,45,9.90
2010,06,15,01,46,9.90
2010,06,15,01,47,9.90
2010,06,15,01,48,9.90
2010,06,15,01,49,9.90
2010,06,15,01,50,9.90
2010,06,15,01,51,9.90
2010,06,15,01,52,9.90
2010,06,15,01,53,9.90
2010,06,15,01,54,9.90
2010,06,15,01,55,9.90
2010,06,15,01,56,9.90
2010,06,15,01,57,9.90
2010,06,15,01,58,9.90
2010,06,15,01,59,9.90
2010,06,15,02,00,9.90
2010,06,15,02,01,9.90
2010,06,15,02,02,9.80
2010,06,15,02,03,9.80
2010,06,15,02,04,9.80
2010,06,15,02,05,9.80
2010,06,15,02,06,9.80
2010,06,15,02,07,9.80
2010,06,15,02,08,9.80
2010,06,15,02,09,9.80
2010,06,15,02,10,9.80
2010,06,15,02,11,9.80
2010,06,15,02,12,9.80
2010,06,15,02,13,9.80
2010,06,15,02,14,9.70
2010,06,15,02,15,9.70
2010,06,15,02,16,9.70
2010,06,15,02,17,9.70
2010,06,15,02,18,9.70
2010,06,15,02,19,9.70
2010,06,15,02,20,9.70
2010,06,15,02,21,9.70
2010,06,15,02,22,9.70
2010,06,15,02,23,9.70
2010,06,15,02,24,9.70
2010,06,15,02,25,9.70
2010,06,15,02,26,9.70
2010,06,15,02,27,9.70
2010,06,15,02,28,9.60
2010,06,15,02,29,9.60
2010,06,15,02,30,9.60
2010,06,15,02,31,9.60
2010,06,15,02,32,9.60
2010,06,15,02,33,9.60
2010,06,15,02,34,9.60
2010,06,15,02,35,9.60
2010,06,15,02,36,9.60
2010,06,15,02,37,9.60
2010,06,15,02,38,9.50
2010,06,15,02,39,9.50
2010,06,15,02,40,9.50
2010,06,15,02,41,9.50
2010,06,15,02,42,9.50
2010,06,15,02,43,9.50
2010,06,15,02,44,9.50
2010,06,15,02,45,9.50
2010,06,15,02,46,9.40
2010,06,15,02,47,9.40
2010,06,15,02,48,9.40
2010,06,15,02,49,9.40
2010,06,15,02,50,9.40
2010,06,15,02,51,9.40
2010,06,15,02,52,9.30
2010,06,15,02,53,9.30
2010,06,15,02,54,9.30
2010,06,15,02,55,9.30
2010,06,15,02,56,9.30
2010,06,15,02,57,9.30
2010,06,15,02,58,9.20
2010,06,15,02,59,9.20
2010,06,15,03,00,9.20
2010,06,15,03,01,9.20
2010,06,15,03,02,9.20
2010,06,15,03,03,9.20
2010,06,15,03,04,9.20
2010,06,15,03,05,9.20
2010,06,15,03,06,9.20
2010,06,15,03,07,9.20
2010,06,15,03,08,9.20
2010,06,15,03,09,9.10
2010,06,15,03,10,9.10
2010,06,15,03,11,9.10
2010,06,15,03,12,9.10
2010,06,15,03,13,9.10
2010,06,15,03,14,9.00
2010,06,15,03,15,9.00
2010,06,15,03,16,9.00
2010,06,15,03,17,9.00
2010,06,15,03,18,9.00
2010,06,15,03,19,9.00
2010,06,15,03,20,9.00
2010,06,15,03,21,9.00
2010,06,15,03,22,8.90
2010,06,15,03,23,8.90
2010,06,15,03,24,8.90
2010,06,15,03,25,8.90
2010,06,15,03,26,8.80
2010,06,15,03,27,8.80
2010,06,15,03,28,8.80
2010,06,15,03,29,8.70
2010,06,15,03,30,8.70
2010,06,15,03,31,8.70
2010,06,15,03,32,8.70
2010,06,15,03,33,8.70
2010,06,15,03,34,8.70
2010,06,15,03,35,8.70
2010,06,15,03,36,8.70
2010,06,15,03,37,8.60
2010,06,15,03,38,8.60
2010,06,15,03,39,8.60
2010,06,15,03,40,8.60
2010,06,15,03,41,8.60
2010,06,15,03,42,8.50
2010,06,15,03,43,8.50
2010,06,15,03,44,8.50
2010,06,15,03,45,8.50
2010,06,15,03,46,8.50
2010,06,15,03,47,8.40
2010,06,15,03,48,8.40
2010,06,15,03,49,8.40
2010,06,15,03,50,8.40
2010,06,15,03,51,8.40
2010,06,15,03,52,8.40
2010,06,15,03,53,8.40
2010,06,15,03,54,8.30
2010,06,15,03,55,8.30
2010,06,15,03,56,8.30
2010,06,15,03,57,8.30
2010,06,15,03,58,8.30
2010,06,15,03,59,8.30
2010,06,15,04,00,8.20
2010,06,15,04,01,8.20
2010,06,15,04,02,8.20
2010,06,15,04,03,8.20
2010,06,15,04,04,8.20
2010,06,15,04,05,8.20
2010,06,15,04,06,8.20
2010,06,15,04,07,8.20
2010,06,15,04,08,8.20
2010,06,15,04,09,8.20
2010,06,15,04,10,8.20
2010,06,15,04,11,8.10
2010,06,15,04,12,8.20
2010,06,15,04,13,8.20
2010,06,15,04,14,8.20
2010,06,15,04,15,8.20
2010,06,15,04,16,8.20
2010,06,15,04,17,8.20
2010,06,15,04,18,8.20
2010,06,15,04,19,8.10
2010,06,15,04,20,8.10
2010,06,15,04,21,8.00
2010,06,15,04,22,8.00
2010,06,15,04,23,8.00
2010,06,15,04,24,7.90
2010,06,15,04,25,7.90
2010,06,15,04,26,7.90
2010,06,15,04,27,7.80
2010,06,15,04,28,7.80
2010,06,15,04,29,7.80
2010,06,15,04,30,7.80
2010,06,15,04,31,7.80
2010,06,15,04,32,7.80
2010,06,15,04,33,7.80
2010,06,15,04,34,7.70
2010,06,15,04,35,7.70
2010,06,15,04,36,7.70
2010,06,15,04,37,7.70
2010,06,15,04,38,7.70
2010,06,15,04,39,7.70
2010,06,15,04,40,7.70
2010,06,15,04,41,7.60
2010,06,15,04,42,7.60
2010,06,15,04,43,7.60
2010,06,15,04,44,7.60
2010,06,15,04,45,7.60
2010,06,15,04,46,7.50
2010,06,15,04,47,7.50
2010,06,15,04,48,7.50
2010,06,15,04,49,7.40
2010,06,15,04,50,7.40
2010,06,15,04,51,7.40
2010,06,15,04,52,7.40
2010,06,15,04,53,7.30
2010,06,15,04,54,7.30
2010,06,15,04,55,7.30
2010,06,15,04,56,7.30
2010,06,15,04,57,7.30
2010,06,15,04,58,7.30
2010,06,15,04,59,7.20
2010,06,15,05,00,7.20
2010,06,15,05,01,7.20
2010,06,15,05,02,7.20
2010,06,15,05,03,7.20
2010,06,15,05,04,7.10
2010,06,15,05,05,7.10
2010,06,15,05,06,7.10
2010,06,15,05,07,7.10
2010,06,15,05,08,7.10
2010,06,15,05,09,7.10
2010,06,15,05,10,7.20
2010,06,15,05,11,7.20
2010,06,15,05,12,7.20
2010,06,15,05,13,7.20
2010,06,15,05,14,7.20
2010,06,15,05,15,7.20
2010,06,15,05,16,7.20
2010,06,15,05,17,7.20
2010,06,15,05,18,7.20
2010,06,15,05,19,7.20
2010,06,15,05,20,7.20
2010,06,15,05,21,7.20
2010,06,15,05,22,7.20
2010,06,15,05,23,7.20
2010,06,15,05,24,7.20
2010,06,15,05,25,7.20
2010,06,15,05,26,7.20
2010,06,15,05,27,7.20
2010,06,15,05,28,7.20
2010,06,15,05,29,7.10
2010,06,15,05,30,7.10
2010,06,15,05,31,7.10
2010,06,15,05,32,7.10
2010,06,15,05,33,7.10
2010,06,15,05,34,7.10
2010,06,15,05,35,7.00
2010,06,15,05,36,7.00
2010,06,15,05,37,7.00
2010,06,15,05,38,7.00
2010,06,15,05,39,7.00
2010,06,15,05,40,7.00
2010,06,15,05,41,7.00
2010,06,15,05,42,7.00
2010,06,15,05,43,6.90
2010,06,15,05,44,6.90
2010,06,15,05,45,6.90
2010,06,15,05,46,6.90
2010,06,15,05,47,6.90
2010,06,15,05,48,6.90
2010,06,15,05,49,6.90
2010,06,15,05,50,7.00
2010,06,15,05,51,7.00
2010,06,15,05,52,7.00
2010,06,15,05,53,7.00
2010,06,15,05,54,7.00
2010,06,15,05,55,7.00
2010,06,15,05,56,7.00
2010,06,15,05,57,7.00
2010,06,15,05,58,7.00
2010,06,15,05,59,7.00
2010,06,15,06,00,7.00
2010,06,15,06,01,7.00
2010,06,15,06,02,7.00
2010,06,15,06,03,7.00
2010,06,15,06,04,7.00
2010,06,15,06,05,7.00
2010,06,15,06,06,7.00
2010,06,15,06,07,7.00
2010,06,15,06,08,7.00
2010,06,15,06,09,7.00
2010,06,15,06,10,7.00
2010,06,15,06,11,7.00
2010,06,15,06,12,7.00
2010,06,15,06,13,6.90
2010,06,15,06,14,6.90
2010,06,15,06,15,6.90
2010,06,15,06,16,6.90
2010,06,15,06,17,6.90
2010,06,15,06,18,6.90
2010,06,15,06,19,6.90
2010,06,15,06,20,6.90
2010,06,15,06,21,6.90
2010,06,15,06,22,6.90
2010,06,15,06,23,6.90
2010,06,15,06,24,6.90
2010,06,15,06,25,7.00
2010,06,15,06,26,7.00
2010,06,15,06,27,7.00
2010,06,15,06,28,7.00
2010,06,15,06,29,7.00
2010,06,15,06,30,7.00
2010,06,15,06,31,7.00
2010,06,15,06,32,7.00
2010,06,15,06,33,7.00
2010,06,15,06,34,7.00
2010,06,15,06,35,7.00
2010,06,15,06,36,7.00
2010,06,15,06,37,7.00
2010,06,15,06,38,7.00
2010,06,15,06,39,6.90
2010,06,15,06,40,6.90
2010,06,15,06,41,6.90
2010,06,15,06,42,6.90
2010,06,15,06,43,6.90
2010,06,15,06,44,6.90
2010,06,15,06,45,6.90
2010,06,15,06,46,6.90
2010,06,15,06,47,6.90
2010,06,15,06,48,7.00
2010,06,15,06,49,7.00
2010,06,15,06,50,7.00
2010,06,15,06,51,7.00
2010,06,15,06,52,7.10
2010,06,15,06,53,7.10
2010,06,15,06,54,7.10
2010,06,15,06,55,7.10
2010,06,15,06,56,7.10
2010,06,15,06,57,7.10
2010,06,15,06,58,7.10
2010,06,15,06,59,7.20
2010,06,15,07,00,7.20
2010,06,15,07,01,7.20
2010,06,15,07,02,7.20
2010,06,15,07,03,7.20
2010,06,15,07,04,7.30
2010,06,15,07,05,7.30
2010,06,15,07,06,7.30
2010,06,15,07,07,7.30
2010,06,15,07,08,7.30
2010,06,15,07,09,7.30
2010,06,15,07,10,7.30
2010,06,15,07,11,7.30
2010,06,15,07,12,7.40
2010,06,15,07,13,7.40
2010,06,15,07,14,7.40
2010,06,15,07,15,7.50
2010,06,15,07,16,7.50
2010,06,15,07,17,7.50
2010,06,15,07,18,7.50
2010,06,15,07,19,7.60
2010,06,15,07,20,7.60
2010,06,15,07,21,7.60
2010,06,15,07,22,7.70
2010,06,15,07,23,7.70
2010,06,15,07,24,7.70
2010,06,15,07,25,7.80
2010,06,15,07,26,7.80
2010,06,15,07,27,7.80
2010,06,15,07,28,7.80
2010,06,15,07,29,7.80
2010,06,15,07,30,7.90
2010,06,15,07,31,7.90
2010,06,15,07,32,8.00
2010,06,15,07,33,8.00
2010,06,15,07,34,8.00
2010,06,15,07,35,8.10
2010,06,15,07,36,8.10
2010,06,15,07,37,8.10
2010,06,15,07,38,8.20
2010,06,15,07,39,8.20
2010,06,15,07,40,8.20
2010,06,15,07,41,8.20
2010,06,15,07,42,8.20
2010,06,15,07,43,8.20
2010,06,15,07,44,8.20
2010,06,15,07,45,8.30
2010,06,15,07,46,8.30
2010,06,15,07,47,8.40
2010,06,15,07,48,8.40
2010,06,15,07,49,8.40
2010,06,15,07,50,8.50
2010,06,15,07,51,8.50
2010,06,15,07,52,8.50
2010,06,15,07,53,8.60
2010,06,15,07,54,8.60
2010,06,15,07,55,8.70
2010,06,15,07,56,8.70
2010,06,15,07,57,8.70
2010,06,15,07,58,8.80
2010,06,15,07,59,8.80
2010,06,15,08,00,8.90
2010,06,15,08,01,8.90
2010,06,15,08,02,9.00
2010,06,15,08,03,9.00
2010,06,15,08,04,9.00
2010,06,15,08,05,9.10
2010,06,15,08,06,9.10
2010,06,15,08,07,9.20
2010,06,15,08,08,9.20
2010,06,15,08,09,9.20
2010,06,15,08,10,9.20
2010,06,15,08,11,9.20
2010,06,15,08,12,9.30
2010,06,15,08,13,9.30
2010,06,15,08,14,9.30
2010,06,15,08,15,9.40
2010,06,15,08,16,9.40
2010,06,15,08,17,9.40
2010,06,15,08,18,9.40
2010,06,15,08,19,9.50
2010,06,15,08,20,9.50
2010,06,15,08,21,9.50
2010,06,15,08,22,9.60
2010,06,15,08,23,9.60
2010,06,15,08,24,9.60
2010,06,15,08,25,9.70
2010,06,15,08,26,9.70
2010,06,15,08,27,9.70
2010,06,15,08,28,9.70
2010,06,15,08,29,9.70
2010,06,15,08,30,9.80
2010,06,15,08,31,9.80
2010,06,15,08,32,9.90
2010,06,15,08,33,9.90
2010,06,15,08,34,9.90
2010,06,15,08,35,9.90
2010,06,15,08,36,9.90
2010,06,15,08,37,9.90
2010,06,15,08,38,10.00
2010,06,15,08,39,10.10
2010,06,15,08,40,10.10
2010,06,15,08,41,10.10
2010,06,15,08,42,10.10
2010,06,15,08,43,10.10
2010,06,15,08,44,10.10
2010,06,15,08,45,10.10
2010,06,15,08,46,10.20
2010,06,15,08,47,10.20
2010,06,15,08,48,10.30
2010,06,15,08,49,10.30
2010,06,15,08,50,10.40
2010,06,15,08,51,10.40
2010,06,15,08,52,10.50
2010,06,15,08,53,10.60
2010,06,15,08,54,10.60
2010,06,15,08,55,10.70
2010,06,15,08,56,10.70
2010,06,15,08,57,10.80
2010,06,15,08,58,10.80
2010,06,15,08,59,10.80
2010,06,15,09,00,10.90
2010,06,15,09,01,10.90
2010,06,15,09,02,10.90
2010,06,15,09,03,10.90
2010,06,15,09,04,11.00
2010,06,15,09,05,11.10
2010,06,15,09,06,11.10
2010,06,15,09,07,11.20
2010,06,15,09,08,11.20
2010,06,15,09,09,11.20
2010,06,15,09,10,11.20
2010,06,15,09,11,11.30
2010,06,15,09,12,11.20
2010,06,15,09,13,11.30
2010,06,15,09,14,11.30
2010,06,15,09,15,11.30
2010,06,15,09,16,11.30
2010,06,15,09,17,11.30
2010,06,15,09,18,11.30
2010,06,15,09,19,11.20
2010,06,15,09,20,11.20
2010,06,15,09,21,11.20
2010,06,15,09,22,11.10
2010,06,15,09,23,11.10
2010,06,15,09,24,11.10
2010,06,15,09,25,11.20
2010,06,15,09,26,11.20
2010,06,15,09,27,11.20
2010,06,15,09,28,11.10
2010,06,15,09,29,11.10
2010,06,15,09,30,11.10
2010,06,15,09,31,11.20
2010,06,15,09,32,11.20
2010,06,15,09,33,11.20
2010,06,15,09,34,11.30
2010,06,15,09,35,11.30
2010,06,15,09,36,11.40
2010,06,15,09,37,11.40
2010,06,15,09,38,11.40
2010,06,15,09,39,11.30
2010,06,15,09,40,11.20
2010,06,15,09,41,11.20
2010,06,15,09,42,11.10
2010,06,15,09,43,11.10
2010,06,15,09,44,11.10
2010,06,15,09,45,11.10
2010,06,15,09,46,11.10
2010,06,15,09,47,11.10
2010,06,15,09,48,11.10
2010,06,15,09,49,11.10
2010,06,15,09,50,11.10
2010,06,15,09,51,11.10
2010,06,15,09,52,11.10
2010,06,15,09,53,11.10
2010,06,15,09,54,11.10
2010,06,15,09,55,11.10
2010,06,15,09,56,11.20
2010,06,15,09,57,11.20
2010,06,15,09,58,11.20
2010,06,15,09,59,11.20
2010,06,15,10,00,11.10
2010,06,15,10,01,11.10
2010,06,15,10,02,11.10
2010,06,15,10,03,11.10
2010,06,15,10,04,11.20
2010,06,15,10,05,11.20
2010,06,15,10,06,11.20
2010,06,15,10,07,11.20
2010,06,15,10,08,11.20
2010,06,15,10,09,11.20
2010,06,15,10,10,11.20
2010,06,15,10,11,11.20
2010,06,15,10,12,11.30
2010,06,15,10,13,11.20
2010,06,15,10,14,11.20
2010,06,15,10,15,11.20
2010,06,15,10,16,11.10
2010,06,15,10,17,11.10
2010,06,15,10,18,11.10
2010,06,15,10,19,11.10
2010,06,15,10,20,11.10
2010,06,15,10,21,11.10
2010,06,15,10,22,11.10
2010,06,15,10,23,11.10
2010,06,15,10,24,11.10
2010,06,15,10,25,11.10
2010,06,15,10,26,11.10
2010,06,15,10,27,11.10
2010,06,15,10,28,11.10
2010,06,15,10,29,11.10
2010,06,15,10,30,11.10
2010,06,15,10,31,11.10
2010,06,15,10,32,11.10
2010,06,15,10,33,11.10
2010,06,15,10,34,11.10
2010,06,15,10,35,11.10
2010,06,15,10,36,11.10
2010,06,15,10,37,11.10
2010,06,15,10,38,11.10
2010,06,15,10,39,11.10
2010,06,15,10,40,11.10
2010,06,15,10,41,11.00
2010,06,15,10,42,10.90
2010,06,15,10,43,11.10
2010,06,15,10,44,11.10
2010,06,15,10,45,11.10
2010,06,15,10,46,11.10
2010,06,15,10,47,11.10
2010,06,15,10,48,11.10
2010,06,15,10,49,11.10
2010,06,15,10,50,11.10
2010,06,15,10,51,11.10
2010,06,15,10,52,11.10
2010,06,15,10,53,11.10
2010,06,15,10,54,11.10
2010,06,15,10,55,11.10
2010,06,15,10,56,11.10
2010,06,15,10,57,11.20
2010,06,15,10,58,11.20
2010,06,15,10,59,11.20
2010,06,15,11,00,11.20
2010,06,15,11,01,11.10
2010,06,15,11,02,11.10
2010,06,15,11,03,11.10
2010,06,15,11,04,11.10
2010,06,15,11,05,11.10
2010,06,15,11,06,11.10
2010,06,15,11,07,11.10
2010,06,15,11,08,11.00
2010,06,15,11,09,10.90
2010,06,15,11,10,10.90
2010,06,15,11,11,11.00
2010,06,15,11,12,11.10
2010,06,15,11,13,11.10
2010,06,15,11,14,11.10
2010,06,15,11,15,11.10
2010,06,15,11,16,11.20
2010,06,15,11,17,11.20
2010,06,15,11,18,11.30
2010,06,15,11,19,11.40
2010,06,15,11,20,11.40
2010,06,15,11,21,11.40
2010,06,15,11,22,11.40
2010,06,15,11,23,11.40
2010,06,15,11,24,11.40
2010,06,15,11,25,11.50
2010,06,15,11,26,11.60
2010,06,15,11,27,11.60
2010,06,15,11,28,11.70
2010,06,15,11,29,11.80
2010,06,15,11,30,11.80
2010,06,15,11,31,11.80
2010,06,15,11,32,11.90
2010,06,15,11,33,12.00
2010,06,15,11,34,12.00
2010,06,15,11,35,12.00
2010,06,15,11,36,12.10
2010,06,15,11,37,12.10
2010,06,15,11,38,12.20
2010,06,15,11,39,12.20
2010,06,15,11,40,12.20
2010,06,15,11,41,12.20
2010,06,15,11,42,12.30
2010,06,15,11,43,12.30
2010,06,15,11,44,12.30
2010,06,15,11,45,12.30
2010,06,15,11,46,12.30
2010,06,15,11,47,12.30
2010,06,15,11,48,12.30
2010,06,15,11,49,12.30
2010,06,15,11,50,12.30
2010,06,15,11,51,12.40
2010,06,15,11,52,12.40
2010,06,15,11,53,12.50
2010,06,15,11,54,12.50
2010,06,15,11,55,12.60
2010,06,15,11,56,12.60
2010,06,15,11,57,12.60
2010,06,15,11,58,12.70
2010,06,15,11,59,12.80
2010,06,15,12,00,12.80
2010,06,15,12,01,12.80
2010,06,15,12,02,12.80
2010,06,15,12,03,12.90
2010,06,15,12,04,12.90
2010,06,15,12,05,12.90
2010,06,15,12,06,13.00
2010,06,15,12,07,13.00
2010,06,15,12,08,13.00
2010,06,15,12,09,13.10
2010,06,15,12,10,13.10
2010,06,15,12,11,13.10
2010,06,15,12,12,13.10
2010,06,15,12,13,13.20
2010,06,15,12,14,13.20
2010,06,15,12,15,13.20
2010,06,15,12,16,13.10
2010,06,15,12,17,13.00
2010,06,15,12,18,12.80
2010,06,15,12,19,12.70
2010,06,15,12,20,12.60
2010,06,15,12,21,12.40
2010,06,15,12,22,12.30
2010,06,15,12,23,12.20
2010,06,15,12,24,12.00
2010,06,15,12,25,12.00
2010,06,15,12,26,12.00
2010,06,15,12,27,12.00
2010,06,15,12,28,12.10
2010,06,15,12,29,12.10
2010,06,15,12,30,12.10
2010,06,15,12,31,12.10
2010,06,15,12,32,12.20
2010,06,15,12,33,12.20
2010,06,15,12,34,12.30
2010,06,15,12,35,12.50
2010,06,15,12,36,12.70
2010,06,15,12,37,12.80
2010,06,15,12,38,12.90
2010,06,15,12,39,13.00
2010,06,15,12,40,13.10
2010,06,15,12,41,13.30
2010,06,15,12,42,13.40
2010,06,15,12,43,13.50
2010,06,15,12,44,13.70
2010,06,15,12,45,13.80
2010,06,15,12,46,13.90
2010,06,15,12,47,14.00
2010,06,15,12,48,14.10
2010,06,15,12,49,14.20
2010,06,15,12,50,14.20
2010,06,15,12,51,14.20
2010,06,15,12,52,14.30
2010,06,15,12,53,14.50
2010,06,15,12,54,14.60
2010,06,15,12,55,14.60
2010,06,15,12,56,14.60
2010,06,15,12,57,14.50
2010,06,15,12,58,14.40
2010,06,15,12,59,14.40
2010,06,15,13,00,14.40
2010,06,15,13,01,14.30
2010,06,15,13,02,14.20
2010,06,15,13,03,14.20
2010,06,15,13,04,14.30
2010,06,15,13,05,14.40
2010,06,15,13,06,14.40
2010,06,15,13,07,14.40
2010,06,15,13,08,14.20
2010,06,15,13,09,14.10
2010,06,15,13,10,14.00
2010,06,15,13,11,13.80
2010,06,15,13,12,13.70
2010,06,15,13,13,13.70
2010,06,15,13,14,13.60
2010,06,15,13,15,13.50
2010,06,15,13,16,13.50
2010,06,15,13,17,13.50
2010,06,15,13,18,13.60
2010,06,15,13,19,13.60
2010,06,15,13,20,13.50
2010,06,15,13,21,13.50
2010,06,15,13,22,13.40
2010,06,15,13,23,13.40
2010,06,15,13,24,13.40
2010,06,15,13,25,13.30
2010,06,15,13,26,13.30
2010,06,15,13,27,13.30
2010,06,15,13,28,13.30
2010,06,15,13,29,13.40
2010,06,15,13,30,13.50
2010,06,15,13,31,13.50
2010,06,15,13,32,13.60
2010,06,15,13,33,13.60
2010,06,15,13,34,13.60
2010,06,15,13,35,13.60
2010,06,15,13,36,13.50
2010,06,15,13,37,13.40
2010,06,15,13,38,13.40
2010,06,15,13,39,13.30
2010,06,15,13,40,13.30
2010,06,15,13,41,13.30
2010,06,15,13,42,13.20
2010,06,15,13,43,13.20
2010,06,15,13,44,13.20
2010,06,15,13,45,13.30
2010,06,15,13,46,13.30
2010,06,15,13,47,13.30
2010,06,15,13,48,13.20
2010,06,15,13,49,13.10
2010,06,15,13,50,13.00
2010,06,15,13,51,12.90
2010,06,15,13,52,12.80
2010,06,15,13,53,12.80
2010,06,15,13,54,12.80
2010,06,15,13,55,12.80
2010,06,15,13,56,12.80
2010,06,15,13,57,12.90
2010,06,15,13,58,12.90
2010,06,15,13,59,12.90
2010,06,15,14,00,12.90
2010,06,15,14,01,12.90
2010,06,15,14,02,13.00
2010,06,15,14,03,13.00
2010,06,15,14,04,13.10
2010,06,15,14,05,13.10
2010,06,15,14,06,13.10
2010,06,15,14,07,13.20
2010,06,15,14,08,13.20
2010,06,15,14,09,13.20
2010,06,15,14,10,13.20
2010,06,15,14,11,13.20
2010,06,15,14,12,13.30
2010,06,15,14,13,13.30
2010,06,15,14,14,13.40
2010,06,15,14,15,13.50
2010,06,15,14,16,13.70
2010,06,15,14,17,13.80
2010,06,15,14,18,13.90
2010,06,15,14,19,13.90
2010,06,15,14,20,14.00
2010,06,15,14,21,14.00
2010,06,15,14,22,14.00
2010,06,15,14,23,14.00
2010,06,15,14,24,14.10
2010,06,15,14,25,14.20
2010,06,15,14,26,14.20
2010,06,15,14,27,14.20
2010,06,15,14,28,14.30
2010,06,15,14,29,14.40
2010,06,15,14,30,14.40
2010,06,15,14,31,14.40
2010,06,15,14,32,14.40
2010,06,15,14,33,14.40
2010,06,15,14,34,14.30
2010,06,15,14,35,14.30
2010,06,15,14,36,14.20
2010,06,15,14,37,14.20
2010,06,15,14,38,14.20
2010,06,15,14,39,14.20
2010,06,15,14,40,14.20
2010,06,15,14,41,14.20
2010,06,15,14,42,14.30
2010,06,15,14,43,14.30
2010,06,15,14,44,14.40
2010,06,15,14,45,14.40
2010,06,15,14,46,14.40
2010,06,15,14,47,14.30
2010,06,15,14,48,14.20
2010,06,15,14,49,14.20
2010,06,15,14,50,14.30
2010,06,15,14,51,14.30
2010,06,15,14,52,14.40
2010,06,15,14,53,14.40
2010,06,15,14,54,14.40
2010,06,15,14,55,14.40
2010,06,15,14,56,14.40
2010,06,15,14,57,14.30
2010,06,15,14,58,14.20
2010,06,15,14,59,14.20
2010,06,15,15,00,14.20
2010,06,15,15,01,14.20
2010,06,15,15,02,14.20
2010,06,15,15,03,14.20
2010,06,15,15,04,14.20
2010,06,15,15,05,14.10
2010,06,15,15,06,14.10
2010,06,15,15,07,14.20
2010,06,15,15,08,14.20
2010,06,15,15,09,14.30
2010,06,15,15,10,14.40
2010,06,15,15,11,14.40
2010,06,15,15,12,14.40
2010,06,15,15,13,14.40
2010,06,15,15,14,14.50
2010,06,15,15,15,14.50
2010,06,15,15,16,14.50
2010,06,15,15,17,14.50
2010,06,15,15,18,14.60
2010,06,15,15,19,14.60
2010,06,15,15,20,14.60
2010,06,15,15,21,14.70
2010,06,15,15,22,14.60
2010,06,15,15,23,14.50
2010,06,15,15,24,14.60
2010,06,15,15,25,14.60
2010,06,15,15,26,14.70
2010,06,15,15,27,14.90
2010,06,15,15,28,15.00
2010,06,15,15,29,15.20
2010,06,15,15,30,15.20
2010,06,15,15,31,15.20
2010,06,15,15,32,15.20
2010,06,15,15,33,15.20
2010,06,15,15,34,15.30
2010,06,15,15,35,15.30
2010,06,15,15,36,15.30
2010,06,15,15,37,15.30
2010,06,15,15,38,15.30
2010,06,15,15,39,15.30
2010,06,15,15,40,15.30
2010,06,15,15,41,15.40
2010,06,15,15,42,15.40
2010,06,15,15,43,15.30
2010,06,15,15,44,15.30
2010,06,15,15,45,15.30
2010,06,15,15,46,15.20
2010,06,15,15,47,15.10
2010,06,15,15,48,15.10
2010,06,15,15,49,15.10
2010,06,15,15,50,15.10
2010,06,15,15,51,15.10
2010,06,15,15,52,15.10
2010,06,15,15,53,15.00
2010,06,15,15,54,14.90
2010,06,15,15,55,14.90
2010,06,15,15,56,15.00
2010,06,15,15,57,15.10
2010,06,15,15,58,15.10
2010,06,15,15,59,15.20
2010,06,15,16,00,15.20
2010,06,15,16,01,15.30
2010,06,15,16,02,15.30
2010,06,15,16,03,15.40
2010,06,15,16,04,15.60
2010,06,15,16,05,15.60
2010,06,15,16,06,15.60
2010,06,15,16,07,15.60
2010,06,15,16,08,15.50
2010,06,15,16,09,15.50
2010,06,15,16,10,15.50
2010,06,15,16,11,15.50
2010,06,15,16,12,15.60
2010,06,15,16,13,15.60
2010,06,15,16,14,15.70
2010,06,15,16,15,15.80
2010,06,15,16,16,15.80
2010,06,15,16,17,15.70
2010,06,15,16,18,15.50
2010,06,15,16,19,15.50
2010,06,15,16,20,15.40
2010,06,15,16,21,15.40
2010,06,15,16,22,15.30
2010,06,15,16,23,15.30
2010,06,15,16,24,15.40
2010,06,15,16,25,15.40
2010,06,15,16,26,15.50
2010,06,15,16,27,15.60
2010,06,15,16,28,15.50
2010,06,15,16,29,15.50
2010,06,15,16,30,15.40
2010,06,15,16,31,15.30
2010,06,15,16,32,15.30
2010,06,15,16,33,15.30
2010,06,15,16,34,15.30
2010,06,15,16,35,15.30
2010,06,15,16,36,15.20
2010,06,15,16,37,15.10
2010,06,15,16,38,15.10
2010,06,15,16,39,15.10
2010,06,15,16,40,15.10
2010,06,15,16,41,15.10
2010,06,15,16,42,15.20
2010,06,15,16,43,15.20
2010,06,15,16,44,15.20
2010,06,15,16,45,15.30
2010,06,15,16,46,15.30
2010,06,15,16,47,15.30
2010,06,15,16,48,15.30
2010,06,15,16,49,15.30
2010,06,15,16,50,15.30
2010,06,15,16,51,15.30
2010,06,15,16,52,15.20
2010,06,15,16,53,15.10
2010,06,15,16,54,15.10
2010,06,15,16,55,15.20
2010,06,15,16,56,15.20
2010,06,15,16,57,15.30
2010,06,15,16,58,15.30
2010,06,15,16,59,15.30
2010,06,15,17,00,15.20
2010,06,15,17,01,15.10
2010,06,15,17,02,15.10
2010,06,15,17,03,15.10
2010,06,15,17,04,15.10
2010,06,15,17,05,15.20
2010,06,15,17,06,15.30
2010,06,15,17,07,15.30
2010,06,15,17,08,15.30
2010,06,15,17,09,15.30
2010,06,15,17,10,15.20
2010,06,15,17,11,15.20
2010,06,15,17,12,15.30
2010,06,15,17,13,15.30
2010,06,15,17,14,15.30
2010,06,15,17,15,15.30
2010,06,15,17,16,15.30
2010,06,15,17,17,15.30
2010,06,15,17,18,15.30
2010,06,15,17,19,15.30
2010,06,15,17,20,15.30
2010,06,15,17,21,15.30
2010,06,15,17,22,15.30
2010,06,15,17,23,15.30
2010,06,15,17,24,15.30
2010,06,15,17,25,15.20
2010,06,15,17,26,15.20
2010,06,15,17,27,15.10
2010,06,15,17,28,15.10
2010,06,15,17,29,15.10
2010,06,15,17,30,15.00
2010,06,15,17,31,14.90
2010,06,15,17,32,14.80
2010,06,15,17,33,14.80
2010,06,15,17,34,14.70
2010,06,15,17,35,14.70
2010,06,15,17,36,14.70
2010,06,15,17,37,14.70
2010,06,15,17,38,14.70